DMSP 5D-3 F19 DEB, 43415

Orbit data source: Space-Track

DMSP 5D-3 F19 DEB, 43415 is space debris in SSO originally from a launch on Thu, 03 Apr 2014 UTC launched from the Air Force Western Test Range (AFWTR). Debris objects in space refer to the collection of defunct objects orbiting the Earth. Examples of debris include non-operational satellites, rocket bodies, and fragments generated from explosions, collisions, or faulty payload assembly.

Loading next visibility...
Identifier
43415, 2014-015E
Orbit
SSO
Country
Flag of USUS
Related business
Manufacturer
Unknown
Mission
Spacecraft
Bus & Motor
Unknown
Mass
~5 kg wet, ~5 kg dry
Launch date (UTC)
2014-04-03 (12 years ago)
Launch vehicle
Unknown
Launch site
Air Force Western Test Range (AFWTR)
Object type
Payload
Rocket body
Debris
Shape & HBR
Cyl, 0.5 m
Radar Cross Section
0.707 m², Medium (>0.1 m² and < 1m²)

Expand to show TLE details & history
Last TLE update: 2 days ago

TLE from 2 days ago
0 DMSP 5D-3 F19 DEB
1 43415U 14015E   26171.35183942  .00002519  00000-0  91131-3 0  9995
2 43415  98.6113 194.1666 0009736  58.1972 302.0159 14.34329283628596
Epoch: 2026-06-20T08:26Z
TLE epoch observation values (Epoch: 2026-06-20T08:26:38.925Z)
Latitude
-0.00011°
Longitude
158.93673°
Altitude
776.544 km
Speed
7.468 km/s
True Right ascension
12h 56m 39s
True Declination
0° 00' 00"
Sunlit
Object was in daylight at epoch
Visualization orbit readout
Latitude
Unknown
Longitude
Unknown
Altitude
Unknown
Speed
Unknown
Apparent Right ascension
Unknown
Apparent Declination
Unknown
Sunlit
N/A
Visualization observer readout
Local Sidereal Time
21:32:09
Azimuth
Unknown
Elevation
Unknown
Doppler factor
Unknown
Orbital elements
Apogee altitude
781.395 km
Perigee altitude
767.467 km
Semi-major axis
7,152.568 km
Eccentricity
0.00097
Inclination
98.6113°
RAAN
194.1666°
Arg. of periapsis
58.1972°
True anomaly
301.92124°
Mean anomaly
302.0159°
Eccentric anomaly
301.96858°
Mean motion
3.58798 °/min
Orbital period
100.33 mins
BSTAR
0.00091131
Loading maneuver chart data...
Computing Atmospheric mass density...
Loading historical data...
Loading historical data...
Loading historical data...
Loading historical data...
Loading historical data...
Loading historical data...
Loading historical data...

Documentation

Showing up to 5 results
|